User: anonymous   Login
Location: *
(51.0333°S, 178.4667°E)
Time: 15:38:05
(UTC+00:00)
Language:

STARLINK-78 - Orbit

View from above orbital plane
View from above orbital plane
View from above satellite
View from above satellite

Ground track
Ground track

The orbit data is extracted from the following two-line orbital elements,

1 44290U 19029BH  20017.91667824  .00035721  00000-0  20572-2 0  9999
2 44290  53.0047 178.0756 0001339  91.5268 198.8212 15.12109634 37239
Epoch (UTC): 17 January 2020 22:00:01
Eccentricity: 0.0001339
inclination: 53.0047°
perigee height: 529 km
apogee height: 530 km
right ascension of ascending node: 178.0756°
argument of perigee: 91.5268°
revolutions per day: 15.12109634
mean anomaly at epoch: 198.8212°
orbit number at epoch: 3723

The dashed part of the orbit path shows where the satellite is in the earth's shadow,  

DLR